This demonstration page uses our WeatherBlox Daily Observations layout. Learn more.

Left ArrowRight Arrow

41.55636, -103.73856

Hourly Observations for March 9, 2015

Temp ( °F °C ) Dew Point ( °F °C ) Humidity (%) Winds ( mph kmh ) Pressure ( in mb ) Visibility ( mi km ) Precip ( " mm )
12:53 am 00:53 Clear 33 0.6 20 -6.7 58 58 E 3 6 30.05 1018 10 16.0934 0 0
1:53 am 01:53 Clear 29 -1.7 20 -6.7 69 69 ENE 7 11 30.05 1018 10 16.0934 0 0
2:53 am 02:53 Clear 29 -1.7 20 -6.7 69 69 E 6 9 30.04 1017 10 16.0934 0 0
3:53 am 03:53 Clear 31 -0.6 21 -6.1 67 67 E 8 13 30.01 1016 10 16.0934 0 0
4:53 am 04:53 Clear 30 -1.1 21 -6.1 69 69 ENE 6 9 30.01 1016 10 16.0934 0 0
5:53 am 05:53 Clear 29 -1.7 22 -5.6 75 75 E 6 9 30 1016 10 16.0934 0 0
6:53 am 06:53 Clear 26 -3.3 20 -6.7 78 78 N 6 9 30.02 1017 10 16.0934 0 0
7:53 am 07:53 Sunny 27 -2.8 22 -5.6 81 81 WNW 5 7 30.04 1017 10 16.0934 0 0
8:53 am 08:53 Sunny 36 2.2 26 -3.3 67 67 WNW 7 11 30.04 1017 10 16.0934 0 0
9:53 am 09:53 Sunny 45 7.2 28 -2.2 52 52 WNW 12 19 30.02 1017 10 16.0934 0 0
10:53 am 10:53 Sunny 49 9.4 28 -2.2 44 44 WNW 13 20 30 1016 10 16.0934 0 0
11:53 am 11:53 Sunny 54 12.2 27 -2.8 35 35 WNW 14 22 29.99 1016 10 16.0934 0 0
12:53 pm 12:53 Sunny 59 15 25 -4 27 27 WNW 10 17 29.85 1011 10 16.0934 0 0
1:53 pm 13:53 Sunny 62 16.7 21 -6.1 21 21 WNW 12 19 29.93 1013 10 16.0934 0 0
2:53 pm 14:53 Sunny 63 17.2 20 -6.7 19 19 WNW 12 19 29.9 1013 10 16.0934 0 0
3:53 pm 15:53 Sunny 64 17.8 18 -7.8 17 17 NW 9 15 29.89 1012 10 16.0934 0 0
4:53 pm 16:53 Sunny 63 17.2 19 -7.2 18 18 NW 9 15 29.89 1012 10 16.0934 0 0
5:53 pm 17:53 Sunny 61 16.1 18 -7.8 19 19 WNW 8 13 29.9 1013 10 16.0934 0 0
6:53 pm 18:53 Sunny 51 10.6 18 -7.8 27 27 NW 7 11 29.94 1014 10 16.0934 0 0
7:53 pm 19:53 Clear 43 6.1 19 -7.2 38 38 N 7 11 29.98 1015 10 16.0934 0 0
8:53 pm 20:53 Clear 37 2.8 21 -6.1 52 52 NW 7 11 29.97 1015 10 16.0934 0 0
9:53 pm 21:53 Clear 36 2.2 21 -6.1 55 55 NW 7 11 29.96 1014 10 16.0934 0 0
10:53 pm 22:53 Clear 35 1.7 20 -6.7 54 54 W 3 6 29.96 1015 10 16.0934 0 0
11:53 pm 23:53 Clear 31 -0.6 20 -6.7 64 64 N 6 9 29.96 1015 10 16.0934 0 0

Powered by AerisWeather